Tracking 29892 objects as of 21-Nov-2024
HD Live streaming from Space Station
objects crossing your sky now

GLOBAL-4

Track GLOBAL-4 now!
10-day predictions


NORAD ID: 44499
Int'l Code: 2019-054E
Perigee: 450.1 km
Apogee: 452.6 km
Inclination: 45.0 °
Period: 93.5 minutes
Semi major axis: 6822 km
RCS: Unknown
Launch date: August 19, 2019
Source: United States (US)
Launch site: Rocket Lab Launch Complex (RLLC)
Your satellite tracking list
Your tracking list is empty




NASA's NSSDC Master Catalog

Two Line Element Set (TLE):
1 44499U 19054E   24326.09041455  .00036061  00000-0  87073-3 0  9998
2 44499  45.0137 213.3154 0001841  84.5417 275.5681 15.40629121291720
Source of the keplerian elements: AFSPC